This demonstration page uses our WeatherBlox Daily Observations layout. Learn more.

Left ArrowRight Arrow

Hourly Observations for January 13, 2017

Temp ( °F °C ) Dew Point ( °F °C ) Humidity (%) Winds ( mph kmh ) Pressure ( in mb ) Visibility ( mi km ) Precip ( " mm )
12:59 am 00:59 Mostly Clear 62 16.7 51 10.6 67 67 SSW 13 20 30.29 1026 10 16 0.00 0.00
1:59 am 01:59 Mostly Clear 61 16.1 51 10.6 70 70 SW 16 26 30.29 1026 10 16 0.00 0.00
2:59 am 02:59 Clear 60 15.6 51 10.6 72 72 SW 13 20 30.29 1026 10 16 0.00 0.00
3:59 am 03:59 Clear 60 15.6 51 10.6 72 72 SW 10 17 30.30 1026 10 16 0.00 0.00
4:59 am 04:59 Partly Cloudy 58 14.4 51 10.6 78 78 SW 9 15 30.30 1026 10 16 0.00 0.00
5:59 am 05:59 Partly Cloudy 57 13.9 50 10 78 78 SW 7 11 30.32 1027 10 16 0.00 0.00
6:59 am 06:59 Partly Cloudy 56 13.3 50 10 81 81 SW 8 13 30.33 1027 10 16 0.00 0.00
7:59 am 07:59 Partly Cloudy 58 14.4 51 10.6 78 78 SW 7 11 30.35 1028 10 16 0.00 0.00
8:59 am 08:59 Partly Cloudy 58 14.4 51 10.6 78 78 W 6 9 30.41 1030 10 16 0.00 0.00
9:59 am 09:59 Mostly Cloudy 62 16.7 52 11.1 70 70 W 8 13 30.43 1031 10 16 0.00 0.00
10:59 am 10:59 Mostly Cloudy 64 17.8 52 11.1 65 65 N 8 13 30.45 1031 10 16 0.00 0.00
11:59 am 11:59 Mostly Cloudy 57 13.9 45 7.2 64 64 N 17 28 30.45 1031 10 16 0.00 0.00
12:59 pm 12:59 Mostly Cloudy 53 11.7 42 5.6 66 66 NE 15 24 30.46 1031 10 16 0.00 0.00
1:59 pm 13:59 Mostly Cloudy 52 11.1 41 5 66 66 NNE 15 24 30.47 1032 10 16 0.00 0.00
2:59 pm 14:59 Mostly Cloudy 51 10.6 38 3.3 61 61 NE 14 22 30.48 1032 10 16 0.00 0.00
3:59 pm 15:59 Mostly Cloudy 49 9.4 37 2.8 64 64 NNE 12 19 30.50 1033 10 16 0.00 0.00
4:59 pm 16:59 Mostly Cloudy 48 8.9 36 2.2 63 63 N 9 15 30.53 1034 10 16 0.00 0.00
5:59 pm 17:59 Mostly Cloudy 47 8.3 36 2.2 66 66 NNE 10 17 30.56 1035 10 16 0.00 0.00
6:59 pm 18:59 Mostly Cloudy 46 7.8 34 1.1 63 63 NNE 9 15 30.58 1036 10 16 0.00 0.00
7:59 pm 19:59 Partly Cloudy 46 7.8 34 1.1 63 63 NNE 10 17 30.60 1036 10 16 0.00 0.00
8:59 pm 20:59 Mostly Cloudy 44 6.7 34 1.1 68 68 NE 8 13 30.61 1037 10 16 0.00 0.00
9:59 pm 21:59 Partly Cloudy 43 6.1 35 1.7 74 74 NE 8 13 30.62 1037 10 16 0.00 0.00
10:59 pm 22:59 Mostly Cloudy 45 7.2 33 0.6 63 63 NNE 12 19 30.63 1037 10 16 0.00 0.00
11:59 pm 23:59 Mostly Cloudy 44 6.7 33 0.6 65 65 NNE 14 22 30.62 1037 10 16 0.00 0.00

Powered by AerisWeather